Theta_e
320 322 335 338 336 331 332 327 323 325 324 324 324 322 318 319 321 323 317 317 318 317 313 301 305 311 311 309 304 305 304 302 301 299 299 299 299 298 298 298 298 298 300 304 306 307 308 304 300
320 324 333 336 331 332 328 322 322 322 324 322 320 321 318 317 316 315 316 316 316 315 311 302 302 310 307 301 299 299 300 299 299 298 298 298 298 298 298 298 298 297 298 300 301 304 304 302 298
321 332 334 326 326 329 324 322 321 322 323 323 319 319 319 316 315 315 315 315 315 315 314 311 300 301 303 300 299 298 298 298 298 298 297 297 297 297 297 297 297 297 297 297 298 300 299 296 295
322 331 333 324 324 323 323 320 321 320 322 322 318 316 317 317 316 315 314 313 313 315 315 311 299 299 300 300 298 298 297 297 298 297 297 296 297 297 296 296 296 296 295 295 295 295 295 295 294
326 329 321 322 323 324 321 322 321 319 321 320 319 315 315 315 316 314 312 312 314 315 312 299 300 299 299 299 298 297 297 297 297 297 296 296 296 296 297 298 299 298 294 294 294 294 294 294 294
328 326 319 321 321 323 321 323 322 321 320 318 316 315 314 314 314 311 311 312 312 311 305 302 300 299 299 298 297 297 297 297 296 296 297 297 297 299 298 302 302 298 295 294 294 294 294 294 294
324 319 319 318 319 324 323 323 322 322 320 320 317 315 313 313 311 310 311 311 311 311 308 305 304 304 304 303 301 300 299 299 300 299 298 296 302 302 300 302 300 299 297 296 296 296 295 295 295
323 318 319 317 318 324 322 322 322 321 320 319 319 314 313 312 310 310 311 311 311 309 306 306 305 305 304 303 303 303 302 302 301 301 300 299 297 299 298 300 299 300 300 299 300 300 300 300 300
321 316 316 318 321 323 321 320 321 321 320 318 317 317 316 312 310 310 311 310 310 308 307 306 305 304 304 304 304 304 303 303 302 302 302 300 297 296 299 299 300 300 300 300 300 300 300 299 298
317 315 317 319 320 319 319 321 321 320 319 316 315 316 314 311 310 311 311 310 309 310 306 305 304 305 306 305 303 303 302 303 302 302 301 300 297 295 296 297 297 298 298 298 298 298 297 297 296
319 316 318 320 320 320 317 317 321 319 317 316 314 313 313 311 310 311 311 311 311 311 310 308 303 304 306 305 303 303 303 302 302 301 301 298 298 295 294 295 295 295 297 297 296 296 296 295 293
317 318 319 320 319 319 317 319 320 320 319 319 316 315 313 310 310 311 311 311 311 311 309 308 305 303 303 304 303 301 301 301 301 300 299 299 298 295 293 293 293 296 296 296 296 296 296 293 293
315 316 319 318 320 319 319 318 318 319 318 318 316 314 312 310 310 311 311 312 311 309 308 308 307 305 304 304 303 301 300 300 300 299 299 298 297 295 294 292 292 295 296 296 296 295 293 293 294
318 317 317 318 317 319 318 318 318 317 318 316 315 314 312 311 311 311 311 312 311 309 309 308 306 305 305 304 304 302 300 299 298 299 299 298 297 296 295 293 291 294 296 296 295 294 294 294 294
318 316 313 314 316 316 318 318 316 318 317 315 315 314 312 312 312 312 311 311 311 310 310 309 306 306 305 304 304 301 299 299 298 298 298 298 297 296 296 293 292 293 294 294 294 294 294 294 293
315 314 313 314 315 316 317 316 315 317 316 315 315 314 313 312 312 312 311 311 311 311 311 310 307 306 305 304 304 301 300 299 299 299 298 298 297 296 296 294 293 291 292 293 294 294 294 294 293
316 314 314 313 317 316 315 316 313 317 316 315 315 314 313 313 312 311 311 310 311 311 311 309 306 306 306 304 303 301 300 299 299 298 298 297 297 296 296 295 294 292 292 292 294 294 294 293 292
314 313 312 312 313 315 315 314 314 316 316 314 314 314 313 313 312 311 310 310 311 311 310 309 308 307 306 304 302 301 298 298 298 298 298 297 296 296 295 295 294 293 293 291 293 293 293 292 290
315 314 314 313 315 314 312 312 311 314 315 313 313 314 313 312 311 311 310 311 311 310 309 308 308 307 306 304 301 298 298 297 297 298 297 296 296 295 294 294 293 293 292 291 290 292 292 290 290
316 315 314 315 315 315 313 312 311 314 315 314 314 313 313 312 311 310 310 311 311 310 308 308 307 307 305 303 298 298 298 297 297 297 296 295 295 295 294 293 293 292 291 291 291 291 292 292 291
316 315 314 315 314 314 313 314 315 316 316 315 314 315 313 311 311 310 310 310 310 309 308 308 307 306 304 302 297 296 296 296 295 295 295 295 294 294 293 293 292 291 291 291 291 290 292 292 291
315 316 317 317 316 315 316 317 321 317 317 315 314 315 314 311 311 310 310 310 310 309 308 307 306 305 303 300 297 296 296 295 294 295 294 294 294 293 293 292 291 291 291 291 290 290 291 291 291
316 317 317 318 318 318 321 321 322 320 318 316 315 315 313 311 310 310 311 311 310 309 308 307 306 303 301 298 297 297 296 295 294 294 294 293 292 292 292 291 291 291 291 290 290 291 291 290 290
318 317 318 318 318 317 322 321 323 318 314 312 312 313 310 310 310 311 311 310 309 308 307 306 304 300 299 298 297 296 295 295 294 294 293 292 292 291 290 290 291 291 290 290 290 290 290 290 290
316 317 316 316 316 315 320 324 322 320 313 311 311 310 310 310 311 310 309 308 308 307 306 304 301 300 298 297 296 295 295 294 293 293 292 292 290 290 290 290 290 290 290 290 289 289 289 289 288
316 320 316 319 322 320 323 323 320 319 310 310 310 311 310 310 309 309 308 307 307 307 305 304 301 299 297 296 295 295 294 294 293 292 291 290 290 290 290 290 290 290 289 289 288 288 287 287 287
317 320 320 321 319 316 323 318 318 315 310 310 310 310 310 309 308 308 307 307 307 306 306 302 298 297 297 295 295 295 294 292 292 291 290 290 290 290 290 290 290 289 288 287 287 287 286 286 286
319 320 317 315 311 314 320 322 324 318 313 310 309 309 309 308 308 308 307 307 307 306 302 299 298 297 295 295 295 294 292 292 290 289 290 290 290 289 290 289 288 288 287 286 286 286 286 286 286
319 317 314 314 315 312 318 319 319 319 312 310 308 309 308 308 308 308 307 307 306 303 300 298 297 296 295 295 294 293 291 290 289 290 289 289 289 290 289 289 288 287 286 286 286 286 286 286 286
317 319 315 307 314 315 317 318 318 318 313 310 311 309 309 308 308 308 307 306 303 301 299 298 296 295 295 294 293 291 290 290 290 290 289 290 290 290 290 288 287 286 286 286 286 286 286 286 286
Wind_Speed
6 2 1 3 2 2 4 1 6 5 4 13 14 20 15 14 4 7 15 12 11 8 7 9 10 10 9 8 6 5 4 3 4 5 6 7 8 9 9 10 11 11 11 11 10 10 10 11 12
7 5 5 4 2 2 5 4 7 6 12 17 22 10 13 6 12 22 16 7 5 5 8 8 9 10 6 5 3 2 2 3 4 5 6 8 9 10 11 12 12 11 11 11 12 10 11 12 13
3 5 4 3 4 6 3 3 8 8 10 6 7 17 7 10 18 17 17 12 10 8 6 5 5 7 5 3 2 2 2 3 4 5 7 8 9 10 12 12 12 12 12 12 12 11 12 13 13
2 4 7 1 11 7 7 9 10 8 12 9 21 9 12 8 15 18 22 17 14 12 6 4 4 4 3 1 2 2 3 4 5 6 8 9 10 12 13 12 11 11 11 12 12 12 12 13 13
4 6 2 4 11 16 5 17 21 9 11 14 13 6 8 12 13 22 20 18 17 12 6 6 5 4 2 2 3 3 4 4 6 8 9 10 12 13 11 13 13 10 14 14 13 13 13 12 13
4 3 4 8 11 6 5 9 23 15 17 16 16 12 8 17 17 22 21 17 14 9 8 6 6 5 4 4 4 4 4 5 7 8 8 10 11 13 12 13 13 16 19 15 14 14 14 14 13
9 1 7 8 15 2 2 11 6 10 12 7 24 6 20 22 20 24 21 15 11 8 7 7 5 5 5 5 6 8 7 8 9 8 8 9 13 14 15 11 10 17 17 13 14 14 13 14 13
23 4 8 11 7 3 3 4 6 11 8 25 18 9 11 29 26 25 23 19 14 9 4 5 4 4 5 9 11 11 12 11 15 14 13 14 12 8 8 11 13 15 15 15 16 15 16 16 14
23 1 7 15 4 4 14 5 4 8 13 8 5 16 21 34 30 26 24 20 15 12 10 8 4 3 6 7 12 13 13 12 15 16 18 17 15 8 8 10 10 12 11 13 13 12 13 12 14
5 4 10 11 2 3 4 2 13 8 15 13 26 21 40 35 32 28 22 17 13 11 8 7 5 12 4 3 7 6 9 8 9 12 19 20 14 13 8 10 9 10 12 11 12 14 14 16 18
11 6 13 2 8 10 6 8 10 12 5 19 37 40 38 34 32 26 19 14 14 8 8 4 4 8 6 6 1 3 5 8 14 14 20 19 17 18 13 12 12 10 10 14 17 18 19 21 19
5 13 6 3 9 6 3 11 3 9 4 12 32 36 36 35 32 25 23 20 21 15 12 5 4 6 5 3 3 7 7 11 10 15 15 20 20 19 16 14 11 6 10 15 18 21 23 24 16
7 6 15 16 1 2 2 7 7 5 15 26 35 34 34 33 29 22 22 20 24 22 16 7 4 2 2 4 6 8 6 10 14 10 16 21 24 19 20 16 11 7 10 18 21 23 21 14 13
11 12 14 17 18 7 7 3 9 15 24 35 38 34 32 30 27 22 25 27 26 24 16 9 6 3 2 7 11 10 9 13 14 9 17 22 23 23 23 18 13 7 12 19 23 21 17 17 15
15 8 10 14 22 8 11 1 8 11 31 37 35 33 30 28 25 22 24 30 26 22 16 9 7 6 4 8 12 13 13 13 15 10 15 20 19 24 26 22 17 8 11 19 18 19 16 15 21
7 5 5 14 10 3 12 5 2 20 32 31 35 33 29 26 25 23 24 25 22 19 12 8 6 6 7 11 14 16 18 17 18 13 14 16 20 23 29 21 22 15 13 17 13 18 22 24 25
4 4 7 8 5 5 5 5 8 26 32 30 36 34 30 26 25 25 23 20 18 15 15 12 9 9 8 10 12 10 13 15 10 11 13 17 22 26 26 24 27 18 17 14 16 20 23 27 32
6 7 7 7 8 3 3 7 5 18 25 29 34 35 32 29 26 26 22 20 18 20 15 9 7 7 9 8 10 16 15 12 14 15 18 21 20 21 20 23 27 22 23 18 16 22 25 28 25
5 6 8 8 9 9 9 8 10 22 18 19 30 36 35 30 27 27 23 22 23 16 11 5 6 8 11 12 15 14 18 15 11 12 10 15 14 16 24 24 24 25 26 25 20 23 26 28 22
8 6 7 6 11 11 13 11 9 13 20 11 31 32 33 31 32 29 26 24 21 16 10 5 4 10 12 14 12 12 17 10 10 13 17 16 20 25 20 22 24 24 24 24 22 23 27 26 21
8 8 8 9 8 6 7 6 8 10 26 33 32 33 30 34 36 32 27 23 18 13 9 5 6 10 15 17 15 15 12 13 15 15 17 20 23 16 20 20 21 21 21 23 26 24 25 26 25
7 8 9 11 7 4 5 3 11 11 15 12 21 27 23 38 39 32 27 21 15 11 8 5 7 13 15 18 17 17 16 17 17 16 18 23 18 21 17 20 20 22 25 29 27 23 26 28 27
7 9 7 12 7 3 7 4 6 6 8 8 13 8 20 39 38 32 25 18 14 12 7 4 9 12 14 17 17 17 19 19 17 20 20 25 24 20 22 24 24 27 28 28 24 23 26 29 29
11 12 9 5 2 3 2 4 4 5 8 12 16 15 35 37 33 28 24 21 14 8 2 5 3 7 12 16 16 16 18 20 22 22 25 25 25 26 26 23 22 25 28 25 26 29 31 31 29
11 7 4 5 5 3 12 8 3 9 7 7 8 28 27 30 34 32 26 20 14 8 6 5 3 9 14 15 16 15 20 21 22 24 25 25 28 28 27 23 27 25 26 29 36 30 28 31 29
7 3 3 1 2 5 8 6 4 9 11 17 25 32 27 30 28 26 22 18 11 5 2 4 7 10 13 14 15 16 19 21 22 23 25 26 25 28 28 27 29 34 36 36 26 27 31 27 26
7 5 4 2 3 3 4 2 7 4 7 17 23 30 27 27 27 24 19 13 6 1 3 6 8 10 13 16 17 21 21 22 23 25 23 24 27 28 28 26 30 39 26 24 30 21 23 20 23
9 5 5 4 3 4 3 3 2 10 5 7 11 21 27 27 23 19 15 9 3 2 6 6 8 12 14 18 19 22 21 22 26 25 25 26 27 28 30 39 35 34 23 21 17 16 15 16 17
7 5 5 4 2 2 3 1 7 7 2 5 8 22 27 24 21 17 12 5 4 7 9 10 12 14 17 17 20 23 23 26 27 28 27 25 30 28 37 34 36 30 20 16 15 15 15 14 16
9 3 4 4 2 1 2 2 10 9 4 5 15 23 23 21 18 13 7 5 7 6 8 9 11 13 14 17 20 23 24 28 29 29 28 30 31 32 43 36 28 25 19 15 15 13 11 13 15
Wind_Direction
304 237 320 244 23 181 272 321 333 121 67 73 80 96 104 57 31 133 142 169 166 174 168 156 141 132 133 127 118 111 95 78 36 30 17 9 3 0 355 349 343 339 340 343 350 350 341 324 317
288 200 275 269 168 285 285 96 77 53 120 99 93 80 48 77 91 130 132 163 188 195 150 137 140 139 140 132 121 106 75 42 13 13 3 358 353 352 346 343 339 334 332 333 333 338 331 324 319
282 199 258 188 225 234 186 153 135 136 116 101 105 64 77 116 119 138 151 154 168 171 137 128 142 141 140 135 106 72 36 13 359 1 353 349 346 342 338 336 333 330 328 327 326 327 324 325 324
244 235 256 191 260 275 155 169 144 109 87 90 114 79 85 142 142 147 146 165 177 164 183 202 154 145 141 111 59 30 15 355 346 346 347 345 340 335 333 332 330 328 331 330 330 328 327 326 325
240 259 238 263 273 273 183 165 150 154 115 107 120 93 83 102 137 143 145 173 178 174 201 169 142 129 121 53 34 15 358 345 339 339 344 342 340 338 337 340 344 340 343 337 333 329 326 325 323
242 262 332 286 284 348 19 83 106 101 111 113 102 103 105 143 143 139 158 175 189 203 160 132 115 105 95 64 40 10 352 345 338 338 346 352 354 350 359 341 342 335 339 335 329 328 326 326 325
233 107 251 268 292 54 83 76 78 127 138 145 134 90 139 149 147 153 164 170 164 172 153 127 98 94 78 55 26 12 8 360 1 356 349 3 359 347 2 335 331 326 341 346 344 335 334 339 335
257 129 289 280 310 195 128 74 84 79 67 136 135 143 166 161 156 166 169 168 156 152 151 106 78 52 42 26 19 23 16 8 1 351 352 1 339 327 330 318 342 334 339 343 343 339 346 339 335
256 330 264 273 269 171 148 129 92 117 131 78 82 147 167 160 163 169 171 177 185 172 154 155 135 46 48 19 354 15 14 1 352 343 334 329 338 337 343 334 340 342 336 336 344 337 340 304 312
203 199 240 251 135 104 22 148 147 146 135 106 94 120 153 159 168 172 176 175 167 164 156 148 129 116 93 31 354 21 4 352 348 324 308 316 330 328 319 309 318 308 331 323 323 316 297 303 305
276 237 245 157 107 63 14 1 146 141 185 163 139 142 156 162 170 175 178 178 170 158 153 128 140 139 153 192 196 265 282 280 290 292 299 313 328 328 314 317 308 318 324 317 305 306 310 311 308
307 297 328 100 87 84 9 324 154 174 138 186 166 164 162 166 172 178 180 178 173 165 160 193 134 129 135 181 304 311 282 277 303 302 306 315 319 325 329 325 326 319 331 306 303 308 311 310 314
323 302 347 340 36 83 57 340 298 120 123 152 159 163 166 169 174 182 189 179 169 163 170 209 219 84 72 10 344 349 336 313 316 311 307 309 313 328 334 332 327 327 330 306 305 313 321 330 337
313 331 332 319 301 197 143 240 319 150 144 149 158 163 166 170 176 183 188 175 169 170 176 209 231 259 336 344 352 347 320 318 324 297 297 307 315 326 329 332 327 322 323 306 307 324 336 343 327
316 324 314 277 270 202 140 49 258 222 154 151 158 163 168 176 177 182 184 175 177 180 189 218 232 256 314 346 344 350 345 344 347 297 305 309 309 316 322 326 329 299 311 305 316 327 318 301 298
294 305 285 294 258 82 108 253 352 163 149 155 165 168 171 179 181 179 176 173 179 181 195 209 230 265 311 341 347 357 342 345 337 332 320 305 306 309 318 324 331 320 300 312 326 302 302 305 302
1 258 319 323 22 148 126 230 214 166 167 165 169 170 170 177 179 175 172 172 178 196 193 202 207 260 310 330 349 336 319 325 336 328 307 304 307 311 320 321 328 319 310 308 313 299 297 301 302
325 338 339 336 315 0 327 308 321 198 180 180 171 170 169 172 172 169 161 174 183 185 187 196 223 266 299 324 311 301 313 303 300 308 306 303 309 318 313 316 320 321 315 310 294 297 301 307 311
324 321 304 297 2 18 341 341 323 332 210 199 169 164 165 165 166 162 162 172 167 162 161 205 277 287 300 316 321 323 323 334 337 304 295 310 311 307 314 317 315 312 312 313 303 297 304 309 310
315 299 320 343 359 1 335 330 351 15 357 211 169 147 152 159 154 153 158 163 161 158 166 188 262 291 303 315 315 311 311 317 310 294 300 307 304 306 312 310 309 308 306 305 304 300 298 293 303
355 24 354 333 333 331 304 350 17 359 20 56 116 139 164 156 149 151 156 154 155 155 165 189 259 278 304 321 324 320 313 307 312 322 321 313 316 316 311 311 306 303 296 295 294 291 283 285 292
347 338 337 314 322 277 283 263 33 12 13 31 86 129 168 167 157 153 150 150 151 154 181 222 257 297 315 327 329 335 337 337 340 330 328 320 319 308 307 307 302 297 292 292 295 286 279 281 284
289 264 288 293 291 4 339 83 317 11 38 342 3 17 179 156 152 153 146 148 153 169 179 242 299 317 320 329 331 338 341 338 341 335 327 321 318 324 311 308 301 298 298 300 292 282 272 276 278
350 352 324 339 358 40 44 101 324 21 3 352 338 1 134 140 142 145 144 143 139 145 125 3 327 318 326 328 335 340 338 339 339 335 325 331 331 323 317 311 305 299 303 290 282 276 274 274 269
356 354 350 6 6 230 339 68 49 340 4 327 28 87 96 121 134 134 133 134 135 127 61 66 279 306 317 331 341 344 340 342 337 333 338 332 326 325 325 318 313 306 292 289 293 289 284 272 265
323 51 138 243 298 292 28 20 337 312 358 64 89 100 111 118 122 124 126 123 116 106 145 229 300 310 329 341 347 345 346 341 338 340 333 330 332 331 331 328 305 306 306 307 302 291 286 279 267
312 17 155 168 344 32 98 175 310 79 32 70 88 102 111 115 115 115 115 114 113 156 274 315 325 343 345 353 356 349 347 348 344 339 340 339 339 339 332 321 308 310 319 307 306 289 284 274 267
55 345 354 9 43 344 356 75 36 16 21 84 96 105 113 113 112 112 115 115 95 336 355 2 352 354 1 2 354 348 353 353 350 351 350 347 341 332 333 331 346 329 317 321 307 296 289 276 268
8 335 19 102 31 121 332 324 306 342 344 93 113 117 118 116 116 117 114 101 31 15 8 16 12 10 10 359 349 351 3 0 357 359 355 349 344 341 335 336 338 330 326 325 322 305 284 272 259
113 147 136 101 297 245 204 253 267 299 193 137 106 119 118 119 122 119 107 69 84 26 19 13 9 13 6 354 352 2 6 2 1 360 359 352 348 344 343 340 341 344 342 340 335 313 288 263 249